Погода в Садовом

Россия / Астраханская область     48°28′57″N   45°33′33″E
темп.,
°C
ветер,
м/с
пор.,
м/с
влажн.,
%
обл.,
%
осадки,
мм/ч
давл.,
гПа
погр.,
м
18 апреля, вс
вс1801:00+9зсз22855 0.0 102111
04:00+8зюз11845 0.0 102110
07:00+9юв22825 0.0 102119
10:00+14ю336180 0.0 1020658
13:00+17юз3344100 0.0 10192092
16:00+17ссв1239100 0.0 10181373
19:00+16вюв2253100 0.0 101848
22:00+14ю2257100 0.0 101817
19 апреля, пн
пн1901:00+14юз2259100 0.0 101823
04:00+13зюз1168100 0.0 101714
07:00+12всв1269100 0.0 101718
10:00+13в2465100 0.1 1017319
13:00+13ю3476100 0.1 1016284
16:00+14ююв3378100 0.1 1016586
19:00+13вюв3484100 0.0 1016224
22:00+12в3689100 0.1 1016217
20 апреля, вт
вт2001:00+11в4778100 0.3 1016249
04:00+11в5982100 0.5 1015309
07:00+11в61188100 0.0 1015404
10:00+12в71290100 0.5 1015510
13:00+14вюв91477100 0.3 1014773
16:00+19вюв101361100 0.3 10121518
19:00+17вюв101666100 0.2 10121010
22:00+15юв91759100 0.3 1014856
21 апреля, ср
ср2101:00+14юв91652100 0.0 1014801
04:00+10вюв71186100 2.4 1016357
07:00+9вюв91586100 4.1 1016462
10:00+11юв81286100 4.1 1019608
13:00+13ююв797999 0.0 1020752
16:00+15юв777697 0.0 1020852
19:00+13юв6984100 0.1 1021667
22:00+11ююв5890100 0.5 1023454
22 апреля, чт
чт2201:00+11юв3596100 0.3 1023143
04:00+11юв3497100 0.7 1024170
07:00+10в2496100 0.1 1024172
10:00+10в4789100 0.5 1025365
13:00+11в3468100 0.0 1025519
16:00+10вюв6786100 0.0 1025531
19:00+9вюв4786100 0.0 1026447
22:00+8в3691100 0.0 1026282